Retour au catalogue

STARLINK-36756

ActifCommunicationsSSO
NORAD 67817·PAYLOAD·🇺🇸 United States

Lancé Feb 15, 2026 depuis Vandenberg Space Force Base

Loading…

Prochains Passages (prochaines 24 heures)

TLE

FraisSource: CelesTrak SupGP

Époque: Sep 14, 2026, 23:08 UTC

1 67817C 26032W   26257.96437500  .00066585  00000+0  20669-2 0  2579
2 67817  97.2856  84.4834 0001650  99.2719  97.7425 15.33406019    15

Suivez STARLINK-36756 en temps réel avec AllMySat

Download on the App Store